Regional Weather Roundup
Issued by NWS

Home | Current Version | Previous Version | Graphics & Text | Print | Product List | Glossary On
Versions: 1 2 3 4 5 6 7 8 9 10 11 12 13 14 15 16 17 18 19 20 21 22 23 24 25 26 27
000
ASUS45 KBOU 051307
RWRCO

WEATHER ROUNDUP FOR COLORADO
NATIONAL WEATHER SERVICE DENVER/BOULDER CO
700 AM MDT THU MAY 05 2016

NOTE: "FAIR" INDICATES FEW OR NO CLOUDS BELOW 12000 FEET WITH NO
SIGNIFICANT WEATHER AND/OR OBSTRUCTIONS TO VISIBILITY.

COZ001>005-013-030-031-051400-
...NORTHWEST COLORADO...

CITY           SKY/WX    TMP DP  RH WIND       PRES   REMARKS
CRAIG          FAIR      37  31  78 CALM      30.19R
HAYDEN         FAIR      43  27  52 E16       30.21R
MEEKER         FAIR      41  32  70 NE3       30.20R
MOUNT WERNER   NOT AVBL
STEAMBOAT SPGS FAIR      37  29  71 CALM      30.25R
WALDEN         FAIR      30  23  74 SE3       30.32R
$$

COZ006>008-011-051400-
...WEST CENTRAL VALLEYS...

CITY           SKY/WX    TMP DP  RH WIND       PRES   REMARKS
GRAND JUNCTION FAIR      53  32  44 E8        30.10R
MONTROSE       FAIR      46  29  51 SW5       30.20R
EAGLE          FAIR      37  30  75 CALM      30.31R
RIFLE          FAIR      42  33  70 CALM      30.19R
DELTA          NOT AVBL
NUCLA          NOT AVBL
$$

COZ017>023-064>068-051400-
...SOUTHWEST COLORADO...

CITY           SKY/WX    TMP DP  RH WIND       PRES   REMARKS
DURANGO        FAIR      40  28  62 CALM      30.25R
CORTEZ         FAIR      41  30  65 VRB3      30.16R
PAGOSA SPRINGS FAIR      37  26  64 CALM      30.32S
TELLURIDE      FAIR      43  22  43 SE8       30.37R
WOLF CREEK PAS FAIR      36  14  41 SW12      30.53S
$$

COZ009-010-012-014-032>034-037-058>063-051400-
...CENTRAL COLORADO...

CITY           SKY/WX    TMP DP  RH WIND       PRES   REMARKS
ASPEN          FAIR      42  25  50 SW9       30.29R
BUENA VISTA    FAIR      37  29  73 CALM      30.35R
COPPER MTN     NOT AVBL
BERTHOUD PASS  FAIR      32  23  69 NW18      30.50R WCI  20
COTTONWOOD PAS FAIR      46  21  36 CALM      30.41R
GUNNISON       FAIR      34  25  69 CALM      30.37S
KREMMLING      FAIR      30  27  86 CALM      30.34R
LEADVILLE      FAIR      29  20  69 CALM      30.41R
MONARCH PASS   FAIR      36  19  51 W6        30.60S
SALIDA         FAIR      42  29  61 N3        30.40S
SUNLIGHT       FAIR      41  21  45 CALM      30.46R
WILKERSON PASS FAIR      41  18  38 NW6       30.50R
$$

COZ069>075-051400-
...SAN LUIS VALLEY/SANGRE DE CRISTO MOUNTAINS...

CITY           SKY/WX    TMP DP  RH WIND       PRES   REMARKS
ALAMOSA        FAIR      38  30  73 W5        30.32R
LA VETA PASS   FAIR      39  19  45 S7        30.41R
SAGUACHE       NOT AVBL
$$

COZ035-036-038>040-051400-
...NORTHERN COLORADO FRONT RANGE...

CITY           SKY/WX    TMP DP  RH WIND       PRES   REMARKS
DENVER INTL AP PTSUNNY   51  33  50 SW10      30.15R
DMNS CITY PARK   N/A     53  33  46 SE7       30.15R
AURORA         FAIR      51  34  53 S8        30.16R
FRONT RANGE AP NOT AVBL
ERIE MUNI ARPT FAIR      45  39  82 CALM      30.14R
BOULDER MUN AP FAIR      50  36  57 SE3       30.14R
CENTENNIAL     PTSUNNY   55  31  39 SW9       30.17R
BROOMFIELD     PTSUNNY   54  32  43 W3        30.15S
FORT COLLINS   FAIR      46  37  71 CALM      30.14R
LONGMONT       FAIR      46  38  73 S3        30.16R
$$

COZ041-046-047-076>085-087-088-051400-
...PIKES PEAK/PALMER DIVIDE AND SOUTHERN FOOTHILLS...

CITY           SKY/WX    TMP DP  RH WIND       PRES   REMARKS
COLO. SPRINGS  FAIR      50  36  58 N7        30.20R
A. F. ACADEMY  FAIR      45  36  70 N7        30.21R
SCHRIEVER AFB  NOT AVBL
ELLICOTT       FAIR     N/A N/A N/A CALM      30.18R
FALCON         NOT AVBL
FORT CARSON    FAIR      50  33  53 N10       30.16S
LIMON          FAIR      43  41  93 CALM      30.17R
MONUMENT HILL  FAIR      46  32  57 SW10      30.25R
TRINIDAD       FAIR      47  32  56 SW10      30.18R
$$

COZ042>045-048>051-090-091-051400-
...NORTHEAST COLORADO...

CITY           SKY/WX    TMP DP  RH WIND       PRES   REMARKS
GREELEY ARPT   FAIR      43  39  87 N3        30.13R
AKRON          FAIR      54  40  59 SW12      30.11S
BURLINGTON     FAIR      51  40  65 S8        30.13R
WRAY           NOT AVBL
STERLING       FAIR      46  43  87 CALM      30.09S
HOLYOKE        NOT AVBL
FORT MORGAN    FAIR      47  40  77 W8        30.13R
$$

COZ086-089-092>099-051400-
...SOUTHEAST COLORADO...

CITY           SKY/WX    TMP DP  RH WIND       PRES   REMARKS
PUEBLO         FAIR      50  39  66 SW6       30.14R
LA JUNTA       FAIR      48  41  76 W8        30.11R
LAMAR          FAIR      53  43  68 NE3       30.08R
SPRINGFIELD      N/A     51  39  63 SW8       30.12R
$$




USA.gov is the U.S. government's official web portal to all federal, state and local government web resources and services.